Berlin, NH

2:51 AM EDT on June 24, 2017 (GMT -0400)
Berlin Municipal

Weather History for KBML - December, 2011

Change the Weather History Date:

Thursday, December 29, 2011

  Actual Average Record
Temperature  
Mean Temperature 12 °F -  
Max Temperature 18 °F 25 °F 42 °F (1996)
Min Temperature 5 °F 5 °F -15 °F (1997)
Degree Days  
Heating Degree Days 54    
Moisture  
Dew Point -3 °F    
Average Humidity 56    
Maximum Humidity 69    
Minimum Humidity 40    
Precipitation  
Precipitation 0.00 in - - ()
Sea Level Pressure  
Sea Level Pressure 29.75 in    
Wind  
Wind Speed 9 mph (NW)    
Max Wind Speed 14 mph    
Max Gust Speed 26 mph    
Visibility 10 miles    
Events      
Averages and records for this station are not official NWS values.
T = Trace of Precipitation, MM = Missing Value Source: NWS Daily Summary

Daily Weather History Graph

Daily Weather History Graph

Search for Another Location

Airport or City:

Trip Planner

Search our weather history database for the weather conditions in past years. The results will help you decide how hot, cold, wet, or windy it might be!

Date:

Astronomy

Dec. 29, 2011 Rise Set
Actual Time 7:21 AM EST 4:12 PM EST
Civil Twilight 6:47 AM EST 4:45 PM EST
Nautical Twilight 6:10 AM EST 5:22 PM EST
Astronomical Twilight 5:35 AM EST 5:58 PM EST
Moon 10:00 AM EST (12/29) 10:00 PM EST (12/29)
Length of Visible Light 9h 58m
Length of Day
8h 51m
Waxing Crescent, 26% of the Moon is Illuminated
Dec 29
Waxing Crescent
Jan 1
First Quarter
Jan 9
Full
Jan 16
Last Quarter
Jan 23
New

Hourly Weather History & Observations

Time (EST) Temp. Windchill Dew Point Humidity Pressure Visibility Wind Dir Wind Speed Gust Speed Precip Events Conditions
12:52 AM 10.9 °F -4.7 °F -0.0 °F 61% 29.57 in 9.0 mi NW 13.8 mph 23.0 mph 0.00 in   Overcast
1:02 AM 10.4 °F -0.4 °F -0.4 °F 62% 29.54 in 10.0 mi Variable 6.9 mph 20.7 mph N/A   Overcast
1:12 AM 10.4 °F -4.8 °F -0.4 °F 62% 29.54 in 10.0 mi WNW 12.7 mph 21.9 mph N/A   Overcast
1:52 AM 9.0 °F -4.2 °F -0.9 °F 64% 29.62 in 10.0 mi NW 9.2 mph - N/A   Overcast
2:52 AM 9.0 °F -4.2 °F -0.9 °F 64% 29.64 in 10.0 mi WNW 9.2 mph 23.0 mph 0.00 in   Overcast
3:04 AM 8.6 °F -3.7 °F -0.4 °F 67% 29.59 in 10.0 mi North 8.1 mph - N/A   Overcast
3:52 AM 8.1 °F -3.2 °F -2.0 °F 64% 29.67 in 10.0 mi Variable 6.9 mph 26.5 mph 0.00 in   Overcast
4:30 AM 6.8 °F -8.6 °F -2.2 °F 67% 29.61 in 10.0 mi WSW 11.5 mph 19.6 mph 0.00 in   Scattered Clouds
4:52 AM 6.1 °F -2.8 °F -2.9 °F 67% 29.68 in 10.0 mi Variable 4.6 mph - 0.00 in   Clear
5:52 AM 6.1 °F -2.8 °F -5.1 °F 60% 29.71 in 10.0 mi Variable 4.6 mph - N/A   Clear
6:52 AM 5.0 °F -2.1 °F -5.1 °F 63% 29.75 in 10.0 mi Variable 3.5 mph - N/A   Clear
7:52 AM 5.0 °F -6.9 °F -5.1 °F 63% 29.78 in 10.0 mi Variable 6.9 mph - N/A   Clear
8:52 AM 7.0 °F -6.6 °F -6.0 °F 55% 29.79 in 10.0 mi WNW 9.2 mph 17.3 mph N/A   Clear
10:52 AM 14.0 °F 6.5 °F -5.1 °F 43% 29.81 in 10.0 mi Variable 4.6 mph - N/A   Clear
11:52 AM 16.0 °F 2.9 °F -4.0 °F 41% 29.80 in 10.0 mi NW 11.5 mph 24.2 mph N/A   Clear
12:52 PM 17.1 °F 3.0 °F -2.9 °F 41% 29.81 in 10.0 mi West 13.8 mph 25.3 mph N/A   Clear
1:52 PM 18.0 °F 6.1 °F -2.9 °F 40% 29.81 in 10.0 mi WNW 10.4 mph 17.3 mph N/A   Clear
2:52 PM 18.0 °F 7.7 °F -2.9 °F 40% 29.83 in 10.0 mi NW 8.1 mph 19.6 mph N/A   Clear
3:52 PM 17.1 °F 11.7 °F -2.0 °F 43% 29.86 in 10.0 mi Variable 3.5 mph - N/A   Clear
5:52 PM 14.0 °F 6.5 °F -2.9 °F 47% 29.93 in 10.0 mi NW 4.6 mph - N/A   Clear
7:52 PM 12.0 °F 4.1 °F -4.0 °F 49% 29.97 in 10.0 mi North 4.6 mph - N/A   Clear
9:52 PM 12.0 °F 5.9 °F -5.1 °F 46% 29.99 in 10.0 mi NW 3.5 mph - N/A   Clear
10:52 PM 6.1 °F - -2.0 °F 69% 30.01 in 10.0 mi Calm Calm - N/A   Clear